Time,TemperatureF,DewpointF,PressureIn,WindDirection,WindDirectionDegrees,WindSpeedMPH,WindSpeedGustMPH,Humidity,HourlyPrecipIn,Conditions,Clouds,dailyrainin,SoftwareType,DateUTC
2013-06-26 00:00:00,61.5,58.2,29.96,SSW,203,0.0,0.8,89,0.00,,,0.00,WUHU216HW,2013-06-26 07:00:00,
2013-06-26 00:05:00,61.3,58.1,29.96,South,180,0.0,0.0,89,0.00,,,0.00,WUHU216HW,2013-06-26 07:05:00,
2013-06-26 00:11:00,61.5,58.2,29.96,SSW,203,0.0,0.0,89,0.00,,,0.00,WUHU216HW,2013-06-26 07:11:00,
2013-06-26 00:16:00,61.5,58.2,29.96,South,180,0.0,0.0,89,0.00,,,0.00,WUHU216HW,2013-06-26 07:16:00,
2013-06-26 00:21:00,61.5,58.2,29.96,SSW,203,0.0,0.0,89,0.00,,,0.00,WUHU216HW,2013-06-26 07:21:00,
2013-06-26 00:26:00,61.5,58.2,29.96,SSW,203,0.0,0.0,89,0.00,,,0.00,WUHU216HW,2013-06-26 07:26:00,
2013-06-26 00:31:00,61.5,58.2,29.96,SSW,203,0.0,0.0,89,0.00,,,0.00,WUHU216HW,2013-06-26 07:31:00,
2013-06-26 00:36:00,61.5,58.2,29.96,SW,225,0.0,0.0,89,0.00,,,0.00,WUHU216HW,2013-06-26 07:36:00,
2013-06-26 00:41:00,61.5,58.2,29.96,SSW,203,0.0,0.0,89,0.00,,,0.00,WUHU216HW,2013-06-26 07:41:00,
2013-06-26 00:46:00,61.5,58.2,29.96,SSW,203,0.0,0.0,89,0.00,,,0.00,WUHU216HW,2013-06-26 07:46:00,
2013-06-26 00:51:00,61.5,58.2,29.96,SSW,203,0.0,0.0,89,0.00,,,0.00,WUHU216HW,2013-06-26 07:51:00,
2013-06-26 00:57:00,61.5,58.2,29.96,SSW,203,0.0,0.0,89,0.00,,,0.00,WUHU216HW,2013-06-26 07:57:00,
2013-06-26 01:02:00,61.5,58.2,29.96,SSW,203,1.3,1.3,89,0.00,,,0.00,WUHU216HW,2013-06-26 08:02:00,
2013-06-26 01:07:00,61.3,58.1,29.96,SW,225,0.0,1.3,89,0.00,,,0.00,WUHU216HW,2013-06-26 08:07:00,
2013-06-26 01:12:00,61.3,58.1,29.96,South,180,0.0,1.3,89,0.00,,,0.00,WUHU216HW,2013-06-26 08:12:00,
2013-06-26 01:17:00,61.1,57.9,29.96,SSW,203,0.0,0.0,89,0.00,,,0.00,WUHU216HW,2013-06-26 08:17:00,
2013-06-26 01:22:00,60.9,57.7,29.96,SSW,203,0.0,0.0,89,0.00,,,0.00,WUHU216HW,2013-06-26 08:22:00,
2013-06-26 01:27:00,61.1,57.9,29.96,SSE,158,0.0,0.0,89,0.00,,,0.00,WUHU216HW,2013-06-26 08:27:00,
2013-06-26 01:32:00,60.9,57.7,29.96,WSW,248,0.0,0.0,89,0.00,,,0.00,WUHU216HW,2013-06-26 08:32:00,
2013-06-26 01:37:00,60.9,57.7,29.96,SW,225,0.0,0.0,89,0.00,,,0.00,WUHU216HW,2013-06-26 08:37:00,
2013-06-26 01:42:00,60.9,57.7,29.96,SSW,203,0.0,0.0,89,0.00,,,0.00,WUHU216HW,2013-06-26 08:42:00,
2013-06-26 01:48:00,60.9,57.7,29.95,South,180,0.0,0.0,89,0.00,,,0.00,WUHU216HW,2013-06-26 08:48:00,
2013-06-26 01:53:00,60.9,57.7,29.96,South,180,0.0,0.0,89,0.00,,,0.00,WUHU216HW,2013-06-26 08:53:00,
2013-06-26 01:58:00,60.8,57.5,29.96,South,180,0.0,0.0,89,0.00,,,0.00,WUHU216HW,2013-06-26 08:58:00,
2013-06-26 02:03:00,60.9,57.7,29.96,SSE,158,0.0,0.0,89,0.00,,,0.00,WUHU216HW,2013-06-26 09:03:00,
2013-06-26 02:08:00,60.9,57.7,29.96,SSE,158,0.0,0.0,89,0.00,,,0.00,WUHU216HW,2013-06-26 09:08:00,
2013-06-26 02:13:00,60.8,57.5,29.96,SSE,158,0.8,0.8,89,0.00,,,0.00,WUHU216HW,2013-06-26 09:13:00,
2013-06-26 02:18:00,60.8,57.5,29.96,SSW,203,0.0,0.8,89,0.00,,,0.00,WUHU216HW,2013-06-26 09:18:00,
2013-06-26 02:23:00,60.6,57.4,29.96,South,180,0.0,0.8,89,0.00,,,0.00,WUHU216HW,2013-06-26 09:23:00,
2013-06-26 02:28:00,60.6,57.4,29.96,South,180,0.0,0.0,89,0.00,,,0.00,WUHU216HW,2013-06-26 09:28:00,
2013-06-26 02:33:00,60.6,57.4,29.96,SSE,158,0.0,0.0,89,0.00,,,0.00,WUHU216HW,2013-06-26 09:33:00,
2013-06-26 02:38:00,60.6,57.4,29.96,SSW,203,0.0,0.0,89,0.00,,,0.00,WUHU216HW,2013-06-26 09:38:00,
2013-06-26 02:44:00,60.6,57.4,29.95,SSE,158,0.0,0.0,89,0.00,,,0.00,WUHU216HW,2013-06-26 09:44:00,
2013-06-26 02:49:00,60.6,57.4,29.95,SSE,158,0.0,0.0,89,0.00,,,0.00,WUHU216HW,2013-06-26 09:49:00,
2013-06-26 02:54:00,60.6,57.4,29.96,SSE,158,0.0,0.0,89,0.00,,,0.00,WUHU216HW,2013-06-26 09:54:00,
2013-06-26 02:59:00,60.6,57.7,29.95,SSE,158,0.0,0.0,90,0.00,,,0.00,WUHU216HW,2013-06-26 09:59:00,
2013-06-26 03:04:00,60.6,57.7,29.95,SSW,203,0.0,0.0,90,0.00,,,0.00,WUHU216HW,2013-06-26 10:04:00,
2013-06-26 03:09:00,60.6,57.7,29.95,SSE,158,0.0,0.6,90,0.00,,,0.00,WUHU216HW,2013-06-26 10:09:00,
2013-06-26 03:14:00,60.6,57.7,29.95,SSE,158,0.0,1.3,90,0.00,,,0.00,WUHU216HW,2013-06-26 10:14:00,
2013-06-26 03:19:00,60.6,57.7,29.96,SSE,158,0.0,1.3,90,0.00,,,0.00,WUHU216HW,2013-06-26 10:19:00,
2013-06-26 03:24:00,60.6,57.7,29.96,SSE,158,0.0,0.0,90,0.00,,,0.00,WUHU216HW,2013-06-26 10:24:00,
2013-06-26 03:29:00,60.6,57.7,29.95,SSE,158,0.0,0.0,90,0.00,,,0.00,WUHU216HW,2013-06-26 10:29:00,
2013-06-26 03:34:00,60.6,57.7,29.95,SSE,158,0.0,0.0,90,0.00,,,0.00,WUHU216HW,2013-06-26 10:34:00,
2013-06-26 03:39:00,60.6,57.7,29.96,SW,225,0.0,0.0,90,0.00,,,0.00,WUHU216HW,2013-06-26 10:39:00,
2013-06-26 03:45:00,60.6,57.7,29.96,SSW,203,0.0,0.0,90,0.00,,,0.00,WUHU216HW,2013-06-26 10:45:00,
2013-06-26 03:50:00,60.6,57.7,29.96,South,180,0.0,0.0,90,0.00,,,0.00,WUHU216HW,2013-06-26 10:50:00,
2013-06-26 03:55:00,60.6,57.7,29.96,South,180,0.0,0.0,90,0.00,,,0.00,WUHU216HW,2013-06-26 10:55:00,
2013-06-26 04:00:00,60.6,57.7,29.96,South,180,0.0,0.0,90,0.00,,,0.00,WUHU216HW,2013-06-26 11:00:00,
2013-06-26 04:05:00,60.6,57.7,29.96,SSE,158,0.0,0.0,90,0.00,,,0.00,WUHU216HW,2013-06-26 11:05:00,
2013-06-26 04:10:00,60.6,57.7,29.96,SE,135,0.0,2.0,90,0.00,,,0.00,WUHU216HW,2013-06-26 11:10:00,
2013-06-26 04:15:00,60.6,57.7,29.96,SSE,158,0.0,2.0,90,0.00,,,0.00,WUHU216HW,2013-06-26 11:15:00,
2013-06-26 04:20:00,60.6,57.7,29.96,SSW,203,0.0,0.0,90,0.00,,,0.00,WUHU216HW,2013-06-26 11:20:00,
2013-06-26 04:25:00,60.6,57.7,29.96,SSW,203,0.0,0.0,90,0.00,,,0.00,WUHU216HW,2013-06-26 11:25:00,
2013-06-26 04:30:00,60.6,57.7,29.96,SE,135,0.0,0.0,90,0.00,,,0.00,WUHU216HW,2013-06-26 11:30:00,
2013-06-26 04:35:00,60.6,57.7,29.96,SSE,158,0.0,0.0,90,0.00,,,0.00,WUHU216HW,2013-06-26 11:35:00,
2013-06-26 04:40:00,60.8,57.9,29.96,South,180,0.0,0.0,90,0.00,,,0.00,WUHU216HW,2013-06-26 11:40:00,
2013-06-26 04:45:00,60.6,57.7,29.96,SSE,158,0.0,0.0,90,0.00,,,0.00,WUHU216HW,2013-06-26 11:45:00,
2013-06-26 04:50:00,60.6,57.7,29.97,SSE,158,0.0,0.0,90,0.00,,,0.00,WUHU216HW,2013-06-26 11:50:00,
2013-06-26 04:55:00,60.6,57.7,29.97,South,180,0.0,0.0,90,0.00,,,0.00,WUHU216HW,2013-06-26 11:55:00,
2013-06-26 05:00:00,60.6,57.7,29.97,South,180,0.0,0.0,90,0.00,,,0.00,WUHU216HW,2013-06-26 12:00:00,
2013-06-26 05:06:00,60.6,57.7,29.97,South,180,0.0,0.0,90,0.00,,,0.00,WUHU216HW,2013-06-26 12:06:00,
2013-06-26 05:11:00,60.6,57.7,29.97,South,180,0.0,0.0,90,0.00,,,0.00,WUHU216HW,2013-06-26 12:11:00,
2013-06-26 05:16:00,60.6,57.7,29.97,SW,225,0.0,0.0,90,0.00,,,0.00,WUHU216HW,2013-06-26 12:16:00,
2013-06-26 05:21:00,60.6,57.7,29.97,South,180,0.0,0.0,90,0.00,,,0.00,WUHU216HW,2013-06-26 12:21:00,
2013-06-26 05:26:00,60.6,57.7,29.97,South,180,0.0,0.0,90,0.00,,,0.00,WUHU216HW,2013-06-26 12:26:00,
2013-06-26 05:31:00,60.6,57.7,29.97,South,180,0.0,0.0,90,0.00,,,0.00,WUHU216HW,2013-06-26 12:31:00,
2013-06-26 05:36:00,60.6,57.7,29.98,SSE,158,0.0,0.0,90,0.00,,,0.00,WUHU216HW,2013-06-26 12:36:00,
2013-06-26 05:41:00,60.6,57.7,29.98,SSE,158,0.0,0.0,90,0.00,,,0.00,WUHU216HW,2013-06-26 12:41:00,
2013-06-26 05:46:00,60.6,57.7,29.98,SSE,158,0.0,0.0,90,0.00,,,0.00,WUHU216HW,2013-06-26 12:46:00,
2013-06-26 05:51:00,60.6,57.7,29.98,South,180,0.0,0.0,90,0.00,,,0.00,WUHU216HW,2013-06-26 12:51:00,
2013-06-26 05:56:00,60.6,57.7,29.98,SSW,203,0.0,0.0,90,0.00,,,0.00,WUHU216HW,2013-06-26 12:56:00,
2013-06-26 06:01:00,60.6,57.7,29.98,SSW,203,0.0,0.0,90,0.00,,,0.00,WUHU216HW,2013-06-26 13:01:00,
2013-06-26 06:06:00,60.6,57.7,29.99,SSW,203,0.0,0.0,90,0.00,,,0.00,WUHU216HW,2013-06-26 13:06:00,
2013-06-26 06:11:00,60.6,57.7,29.98,SSE,158,0.0,0.0,90,0.00,,,0.00,WUHU216HW,2013-06-26 13:11:00,
2013-06-26 06:17:00,60.6,57.7,29.99,SSE,158,0.0,0.0,90,0.00,,,0.00,WUHU216HW,2013-06-26 13:17:00,
2013-06-26 06:22:00,60.6,57.7,29.99,SSE,158,0.0,0.0,90,0.00,,,0.00,WUHU216HW,2013-06-26 13:22:00,
2013-06-26 06:27:00,60.6,57.7,29.99,SSW,203,0.0,0.0,90,0.00,,,0.00,WUHU216HW,2013-06-26 13:27:00,
2013-06-26 06:32:00,60.6,57.7,29.99,South,180,0.0,0.0,90,0.00,,,0.00,WUHU216HW,2013-06-26 13:32:00,
2013-06-26 06:37:00,60.6,57.7,30.00,South,180,0.0,0.0,90,0.00,,,0.00,WUHU216HW,2013-06-26 13:37:00,
2013-06-26 06:42:00,60.6,57.7,30.00,SSE,158,0.0,0.0,90,0.00,,,0.00,WUHU216HW,2013-06-26 13:42:00,
2013-06-26 06:47:00,60.6,57.7,30.00,SSE,158,0.0,0.0,90,0.00,,,0.00,WUHU216HW,2013-06-26 13:47:00,
2013-06-26 06:52:00,60.6,57.7,30.00,SW,225,0.0,0.0,90,0.00,,,0.00,WUHU216HW,2013-06-26 13:52:00,
2013-06-26 06:57:00,60.6,57.7,30.01,SSE,158,0.0,0.0,90,0.00,,,0.00,WUHU216HW,2013-06-26 13:57:00,
2013-06-26 07:02:00,60.6,57.7,30.00,SSW,203,0.0,0.0,90,0.00,,,0.00,WUHU216HW,2013-06-26 14:02:00,
2013-06-26 07:07:00,60.6,57.7,30.00,SSE,158,0.6,0.6,90,0.00,,,0.00,WUHU216HW,2013-06-26 14:07:00,
2013-06-26 07:12:00,60.6,57.7,30.00,SSE,158,0.0,0.6,90,0.00,,,0.00,WUHU216HW,2013-06-26 14:12:00,
2013-06-26 07:17:00,60.6,57.7,30.01,South,180,0.0,0.0,90,0.00,,,0.00,WUHU216HW,2013-06-26 14:17:00,
2013-06-26 07:22:00,60.6,57.7,30.01,SSE,158,0.0,0.0,90,0.00,,,0.00,WUHU216HW,2013-06-26 14:22:00,
2013-06-26 07:27:00,60.6,57.7,30.01,SSW,203,0.0,1.1,90,0.00,,,0.00,WUHU216HW,2013-06-26 14:27:00,
2013-06-26 07:32:00,60.6,57.7,30.01,SSW,203,0.0,2.0,90,0.00,,,0.00,WUHU216HW,2013-06-26 14:32:00,
2013-06-26 07:37:00,60.6,57.7,30.01,South,180,0.0,2.0,90,0.00,,,0.00,WUHU216HW,2013-06-26 14:37:00,
2013-06-26 07:42:00,60.6,57.7,30.01,SW,225,0.8,1.3,90,0.00,,,0.00,WUHU216HW,2013-06-26 14:42:00,
2013-06-26 07:47:00,60.4,57.5,30.01,SSW,203,2.0,2.0,90,0.00,,,0.00,WUHU216HW,2013-06-26 14:47:00,
2013-06-26 07:52:00,60.4,57.5,30.01,SSE,158,0.0,2.0,90,0.00,,,0.00,WUHU216HW,2013-06-26 14:52:00,
2013-06-26 07:58:00,60.6,57.7,30.01,SSW,203,0.0,2.6,90,0.00,,,0.00,WUHU216HW,2013-06-26 14:58:00,
2013-06-26 08:03:00,60.6,57.7,30.01,SW,225,3.3,3.3,90,0.00,,,0.00,WUHU216HW,2013-06-26 15:03:00,
2013-06-26 08:08:00,60.6,57.7,30.01,SSW,203,0.0,3.3,90,0.00,,,0.00,WUHU216HW,2013-06-26 15:08:00,
2013-06-26 08:13:00,60.9,58.3,30.01,SSW,203,0.0,3.3,91,0.00,,,0.00,WUHU216HW,2013-06-26 15:13:00,
2013-06-26 08:18:00,60.9,58.3,30.01,SSE,158,0.0,0.0,91,0.00,,,0.00,WUHU216HW,2013-06-26 15:18:00,
2013-06-26 08:23:00,61.1,58.5,30.01,SE,135,0.0,1.3,91,0.00,,,0.00,WUHU216HW,2013-06-26 15:23:00,
2013-06-26 08:28:00,61.3,58.7,30.01,SE,135,1.3,1.3,91,0.00,,,0.00,WUHU216HW,2013-06-26 15:28:00,
2013-06-26 08:33:00,61.5,58.9,30.02,East,90,0.0,2.4,91,0.00,,,0.00,WUHU216HW,2013-06-26 15:33:00,
2013-06-26 08:38:00,61.8,59.2,30.02,SE,135,0.8,2.4,91,0.00,,,0.00,WUHU216HW,2013-06-26 15:38:00,
2013-06-26 08:43:00,62.2,59.6,30.02,SE,135,0.0,0.8,91,0.00,,,0.00,WUHU216HW,2013-06-26 15:43:00,
2013-06-26 08:48:00,62.4,59.8,30.02,ESE,113,0.0,0.0,91,0.00,,,0.00,WUHU216HW,2013-06-26 15:48:00,
2013-06-26 08:53:00,62.9,60.3,30.02,SE,135,0.0,0.0,91,0.00,,,0.00,WUHU216HW,2013-06-26 15:53:00,
2013-06-26 08:58:00,63.3,60.7,30.02,SSE,158,0.0,0.0,91,0.00,,,0.00,WUHU216HW,2013-06-26 15:58:00,
2013-06-26 09:03:00,63.6,61.0,30.02,SSE,158,0.0,0.0,91,0.00,,,0.00,WUHU216HW,2013-06-26 16:03:00,
2013-06-26 09:08:00,64.0,61.2,30.02,WSW,248,0.0,0.0,91,0.00,,,0.00,WUHU216HW,2013-06-26 16:08:00,
2013-06-26 09:13:00,64.0,61.4,30.02,SSW,203,0.0,0.0,91,0.00,,,0.00,WUHU216HW,2013-06-26 16:13:00,
2013-06-26 09:18:00,64.0,61.4,30.02,SSE,158,0.8,0.8,91,0.00,,,0.00,WUHU216HW,2013-06-26 16:18:00,
2013-06-26 09:24:00,64.2,61.3,30.02,SW,225,2.9,3.5,90,0.00,,,0.00,WUHU216HW,2013-06-26 16:24:00,
2013-06-26 09:29:00,64.2,61.3,30.02,SSW,203,0.8,3.5,90,0.00,,,0.00,WUHU216HW,2013-06-26 16:29:00,
2013-06-26 09:34:00,64.5,61.6,30.03,SW,225,2.0,2.9,90,0.00,,,0.00,WUHU216HW,2013-06-26 16:34:00,
2013-06-26 09:38:00,64.9,61.8,30.02,WSW,248,1.7,3.8,90,0.00,,,0.00,WUHU216HW,2013-06-26 16:38:00,
2013-06-26 09:44:00,64.9,61.6,30.03,SW,225,0.0,3.8,89,0.00,,,0.00,WUHU216HW,2013-06-26 16:44:00,
2013-06-26 09:49:00,65.1,61.8,30.03,SSW,203,1.7,1.7,89,0.00,,,0.00,WUHU216HW,2013-06-26 16:49:00,
2013-06-26 09:54:00,65.3,61.6,30.03,SSW,203,0.0,1.7,88,0.00,,,0.00,WUHU216HW,2013-06-26 16:54:00,
2013-06-26 09:58:00,65.6,61.6,30.03,SW,225,0.0,0.0,87,0.00,,,0.00,WUHU216HW,2013-06-26 16:58:00,
2013-06-26 10:03:00,65.8,61.8,30.03,SSW,203,0.0,0.0,87,0.00,,,0.00,WUHU216HW,2013-06-26 17:03:00,
2013-06-26 10:08:00,66.2,61.8,30.03,SSW,203,0.0,1.7,86,0.00,,,0.00,WUHU216HW,2013-06-26 17:08:00,
2013-06-26 10:13:00,66.5,62.2,30.02,SSW,203,1.3,1.7,86,0.00,,,0.00,WUHU216HW,2013-06-26 17:13:00,
2013-06-26 10:19:00,66.7,62.0,30.03,SW,225,1.7,1.7,85,0.00,,,0.00,WUHU216HW,2013-06-26 17:19:00,
2013-06-26 10:24:00,67.1,62.4,30.03,SW,225,0.0,1.7,85,0.00,,,0.00,WUHU216HW,2013-06-26 17:24:00,
2013-06-26 10:29:00,67.2,62.2,30.03,SSW,203,4.2,4.2,84,0.00,,,0.00,WUHU216HW,2013-06-26 17:29:00,
2013-06-26 10:34:00,67.6,62.3,30.03,South,180,3.1,4.2,83,0.00,,,0.00,WUHU216HW,2013-06-26 17:34:00,
2013-06-26 10:39:00,67.8,62.4,30.02,SSW,203,6.9,6.9,83,0.00,,,0.00,WUHU216HW,2013-06-26 17:39:00,
2013-06-26 10:44:00,67.8,62.1,30.03,South,180,0.0,6.9,82,0.00,,,0.00,WUHU216HW,2013-06-26 17:44:00,
2013-06-26 10:49:00,68.1,62.5,30.03,SSW,203,0.0,6.9,82,0.00,,,0.00,WUHU216HW,2013-06-26 17:49:00,
2013-06-26 10:54:00,68.1,62.3,30.03,SSW,203,0.0,3.3,81,0.00,,,0.00,WUHU216HW,2013-06-26 17:54:00,
2013-06-26 10:59:00,68.3,62.3,30.03,SE,135,0.0,0.0,81,0.00,,,0.00,WUHU216HW,2013-06-26 17:59:00,
2013-06-26 11:04:00,68.7,62.3,30.03,SW,225,0.0,2.9,80,0.00,,,0.00,WUHU216HW,2013-06-26 18:04:00,
2013-06-26 11:09:00,68.9,62.5,30.03,South,180,1.1,2.9,80,0.00,,,0.00,WUHU216HW,2013-06-26 18:09:00,
2013-06-26 11:14:00,69.2,62.8,30.03,WSW,248,0.0,1.1,80,0.00,,,0.00,WUHU216HW,2013-06-26 18:14:00,
2013-06-26 11:19:00,69.4,62.6,30.03,SW,225,0.0,0.0,79,0.00,,,0.00,WUHU216HW,2013-06-26 18:19:00,
2013-06-26 11:24:00,69.4,62.6,30.03,SW,225,0.0,0.0,79,0.00,,,0.00,WUHU216HW,2013-06-26 18:24:00,
2013-06-26 11:29:00,69.6,62.4,30.03,SW,225,0.0,0.0,78,0.00,,,0.00,WUHU216HW,2013-06-26 18:29:00,
2013-06-26 11:34:00,69.8,62.5,30.03,SW,225,2.6,7.1,78,0.00,,,0.00,WUHU216HW,2013-06-26 18:34:00,
2013-06-26 11:39:00,69.9,62.3,30.03,SSW,203,6.0,7.1,77,0.00,,,0.00,WUHU216HW,2013-06-26 18:39:00,
2013-06-26 11:44:00,70.1,62.5,30.03,SSW,203,2.4,6.0,77,0.00,,,0.00,WUHU216HW,2013-06-26 18:44:00,
2013-06-26 11:49:00,70.3,62.7,30.03,SE,135,4.6,4.6,77,0.00,,,0.00,WUHU216HW,2013-06-26 18:49:00,
2013-06-26 11:54:00,70.7,63.0,30.03,South,180,0.0,4.6,77,0.00,,,0.00,WUHU216HW,2013-06-26 18:54:00,
2013-06-26 11:59:00,71.4,63.8,30.04,South,180,1.7,4.6,77,0.00,,,0.00,WUHU216HW,2013-06-26 18:59:00,
2013-06-26 12:04:00,71.9,64.3,30.04,SSW,203,2.4,2.6,77,0.00,,,0.00,WUHU216HW,2013-06-26 19:04:00,
2013-06-26 12:09:00,71.9,63.5,30.04,SW,225,0.0,2.6,75,0.00,,,0.00,WUHU216HW,2013-06-26 19:09:00,
2013-06-26 12:14:00,71.9,63.9,30.04,SW,225,0.0,2.4,76,0.00,,,0.00,WUHU216HW,2013-06-26 19:14:00,
2013-06-26 12:19:00,72.1,63.3,30.04,SSE,158,0.8,2.9,74,0.00,,,0.00,WUHU216HW,2013-06-26 19:19:00,
2013-06-26 12:24:00,72.3,63.5,30.04,SE,135,0.0,2.9,74,0.00,,,0.00,WUHU216HW,2013-06-26 19:24:00,
2013-06-26 12:30:00,72.5,63.3,30.05,SSE,158,2.0,4.0,73,0.00,,,0.00,WUHU216HW,2013-06-26 19:30:00,
2013-06-26 12:35:00,72.8,63.7,30.05,SSW,203,0.0,6.2,73,0.00,,,0.00,WUHU216HW,2013-06-26 19:35:00,
2013-06-26 12:40:00,72.6,62.7,30.05,SSW,203,0.0,6.2,71,0.00,,,0.00,WUHU216HW,2013-06-26 19:40:00,
2013-06-26 12:45:00,72.5,63.3,30.05,SE,135,1.3,1.7,73,0.00,,,0.00,WUHU216HW,2013-06-26 19:45:00,
2013-06-26 12:50:00,72.8,63.7,30.05,SW,225,0.0,3.3,73,0.00,,,0.00,WUHU216HW,2013-06-26 19:50:00,
2013-06-26 12:55:00,72.8,63.3,30.05,SW,225,0.6,3.3,72,0.00,,,0.00,WUHU216HW,2013-06-26 19:55:00,
2013-06-26 13:00:00,72.6,63.1,30.05,SSW,203,2.4,2.6,72,0.00,,,0.00,WUHU216HW,2013-06-26 20:00:00,
2013-06-26 13:05:00,72.6,63.1,30.05,SSW,203,3.5,3.5,72,0.00,,,0.00,WUHU216HW,2013-06-26 20:05:00,
2013-06-26 13:10:00,72.6,63.1,30.05,SSE,158,0.0,3.5,72,0.00,,,0.00,WUHU216HW,2013-06-26 20:10:00,
2013-06-26 13:15:00,73.0,63.5,30.05,SSW,203,4.9,4.9,72,0.00,,,0.00,WUHU216HW,2013-06-26 20:15:00,
2013-06-26 13:20:00,73.0,63.1,30.05,SSW,203,4.0,4.9,71,0.00,,,0.00,WUHU216HW,2013-06-26 20:20:00,
2013-06-26 13:25:00,72.6,62.4,30.05,SSE,158,0.0,4.9,70,0.00,,,0.00,WUHU216HW,2013-06-26 20:25:00,
2013-06-26 13:30:00,72.6,62.7,30.05,SSE,158,0.0,4.0,71,0.00,,,0.00,WUHU216HW,2013-06-26 20:30:00,
2013-06-26 13:35:00,72.8,62.6,30.05,SW,225,3.8,3.8,70,0.00,,,0.00,WUHU216HW,2013-06-26 20:35:00,
2013-06-26 13:40:00,72.8,62.9,30.05,WSW,248,5.3,5.3,71,0.00,,,0.00,WUHU216HW,2013-06-26 20:40:00,
2013-06-26 13:46:00,73.0,62.7,30.05,SSW,203,0.0,5.3,70,0.00,,,0.00,WUHU216HW,2013-06-26 20:46:00,
2013-06-26 13:51:00,73.2,62.9,30.04,South,180,0.0,5.3,70,0.00,,,0.00,WUHU216HW,2013-06-26 20:51:00,
2013-06-26 13:56:00,73.5,63.3,30.04,SW,225,7.3,7.3,70,0.00,,,0.00,WUHU216HW,2013-06-26 20:56:00,
2013-06-26 14:01:00,73.5,62.8,30.04,WSW,248,0.0,7.3,69,0.00,,,0.00,WUHU216HW,2013-06-26 21:01:00,
2013-06-26 14:06:00,73.7,63.0,30.04,SW,225,5.5,7.3,69,0.00,,,0.00,WUHU216HW,2013-06-26 21:06:00,
2013-06-26 14:11:00,73.7,63.0,30.04,SSW,203,0.0,5.5,69,0.00,,,0.00,WUHU216HW,2013-06-26 21:11:00,
2013-06-26 14:16:00,73.9,62.7,30.03,SSW,203,4.6,6.2,68,0.00,,,0.00,WUHU216HW,2013-06-26 21:16:00,
2013-06-26 14:21:00,73.9,62.7,30.03,SW,225,0.0,6.2,68,0.00,,,0.00,WUHU216HW,2013-06-26 21:21:00,
2013-06-26 14:26:00,74.1,62.8,30.03,East,90,0.0,4.2,68,0.00,,,0.00,WUHU216HW,2013-06-26 21:26:00,
2013-06-26 14:31:00,74.3,63.0,30.03,SW,225,0.0,2.2,68,0.00,,,0.00,WUHU216HW,2013-06-26 21:31:00,
2013-06-26 14:36:00,74.3,63.0,30.03,SSW,203,0.0,0.0,68,0.00,,,0.00,WUHU216HW,2013-06-26 21:36:00,
2013-06-26 14:41:00,74.3,62.6,30.03,SW,225,2.4,2.4,67,0.00,,,0.00,WUHU216HW,2013-06-26 21:41:00,
2013-06-26 14:46:00,74.1,62.4,30.03,SSW,203,0.0,6.0,67,0.00,,,0.00,WUHU216HW,2013-06-26 21:46:00,
2013-06-26 14:51:00,74.4,62.7,30.03,SW,225,0.8,6.0,67,0.00,,,0.00,WUHU216HW,2013-06-26 21:51:00,
2013-06-26 14:56:00,74.6,62.9,30.03,SSE,158,2.9,2.9,67,0.00,,,0.00,WUHU216HW,2013-06-26 21:56:00,
2013-06-26 15:01:00,74.8,63.1,30.03,SSE,158,0.0,2.9,67,0.00,,,0.00,WUHU216HW,2013-06-26 22:01:00,
2013-06-26 15:06:00,75.0,63.2,30.03,SSW,203,5.5,5.5,67,0.00,,,0.00,WUHU216HW,2013-06-26 22:06:00,
2013-06-26 15:11:00,75.2,63.4,30.02,SSW,203,0.6,5.5,67,0.00,,,0.00,WUHU216HW,2013-06-26 22:11:00,
2013-06-26 15:17:00,75.3,63.6,30.03,SSW,203,6.7,6.7,67,0.00,,,0.00,WUHU216HW,2013-06-26 22:17:00,
2013-06-26 15:23:00,75.7,63.5,30.02,SSW,203,0.0,6.7,66,0.00,,,0.00,WUHU216HW,2013-06-26 22:23:00,
2013-06-26 15:28:00,75.9,63.2,30.02,SSW,203,0.0,3.3,65,0.00,,,0.00,WUHU216HW,2013-06-26 22:28:00,
2013-06-26 15:33:00,75.9,63.2,30.02,SSW,203,0.0,0.0,65,0.00,,,0.00,WUHU216HW,2013-06-26 22:33:00,
2013-06-26 15:38:00,76.2,63.6,30.02,SW,225,0.0,1.3,65,0.00,,,0.00,WUHU216HW,2013-06-26 22:38:00,
2013-06-26 15:43:00,76.2,63.6,30.02,SW,225,0.0,5.8,65,0.00,,,0.00,WUHU216HW,2013-06-26 22:43:00,
2013-06-26 15:48:00,76.2,63.1,30.01,ESE,113,2.4,5.8,64,0.00,,,0.00,WUHU216HW,2013-06-26 22:48:00,
2013-06-26 15:53:00,76.2,63.1,30.01,SSE,158,0.0,3.3,64,0.00,,,0.00,WUHU216HW,2013-06-26 22:53:00,
2013-06-26 15:58:00,76.1,63.4,30.01,South,180,1.5,2.9,65,0.00,,,0.00,WUHU216HW,2013-06-26 22:58:00,
2013-06-26 16:03:00,76.1,63.0,30.01,South,180,0.0,1.5,64,0.00,,,0.00,WUHU216HW,2013-06-26 23:03:00,
2013-06-26 16:08:00,76.2,63.1,30.01,SE,135,2.6,2.6,64,0.00,,,0.00,WUHU216HW,2013-06-26 23:08:00,
2013-06-26 16:13:00,76.2,63.1,30.01,South,180,0.0,2.6,64,0.00,,,0.00,WUHU216HW,2013-06-26 23:13:00,
2013-06-26 16:18:00,76.1,63.0,30.01,SSE,158,2.0,4.4,64,0.00,,,0.00,WUHU216HW,2013-06-26 23:18:00,
2013-06-26 16:23:00,75.9,62.8,30.01,SSW,203,0.0,6.2,64,0.00,,,0.00,WUHU216HW,2013-06-26 23:23:00,
2013-06-26 16:28:00,75.7,62.2,30.01,SE,135,0.6,6.2,63,0.00,,,0.00,WUHU216HW,2013-06-26 23:28:00,
2013-06-26 16:33:00,75.3,61.8,30.01,South,180,1.1,1.1,63,0.00,,,0.00,WUHU216HW,2013-06-26 23:33:00,
2013-06-26 16:38:00,74.8,61.8,30.01,SE,135,0.0,7.1,64,0.00,,,0.00,WUHU216HW,2013-06-26 23:38:00,
2013-06-26 16:43:00,74.8,61.8,30.01,SW,225,2.0,7.1,64,0.00,,,0.00,WUHU216HW,2013-06-26 23:43:00,
2013-06-26 16:48:00,74.8,62.2,30.00,SSE,158,0.0,2.0,65,0.00,,,0.00,WUHU216HW,2013-06-26 23:48:00,
2013-06-26 16:53:00,75.0,61.9,30.01,SE,135,2.0,4.2,64,0.00,,,0.00,WUHU216HW,2013-06-26 23:53:00,
2013-06-26 16:54:00,75.0,61.9,30.01,SE,135,2.0,4.2,64,0.00,,,0.00,WUHU216HW,2013-06-26 23:54:00,
2013-06-26 16:59:00,75.2,62.1,30.01,SSE,158,2.0,4.2,64,0.00,,,0.00,WUHU216HW,2013-06-26 23:59:00,
2013-06-26 17:04:00,75.0,61.9,30.01,SW,225,0.0,4.0,64,0.00,,,0.00,WUHU216HW,2013-06-27 00:04:00,
2013-06-26 17:09:00,75.0,61.9,30.00,South,180,3.1,4.9,64,0.00,,,0.00,WUHU216HW,2013-06-27 00:09:00,
2013-06-26 17:14:00,74.8,62.2,30.00,SW,225,0.0,4.9,65,0.00,,,0.00,WUHU216HW,2013-06-27 00:14:00,
2013-06-26 17:19:00,74.8,62.2,30.00,SSE,158,0.6,1.1,65,0.00,,,0.00,WUHU216HW,2013-06-27 00:19:00,
2013-06-26 17:25:00,75.0,61.9,30.00,SSW,203,0.0,1.1,64,0.00,,,0.00,WUHU216HW,2013-06-27 00:25:00,
2013-06-26 17:30:00,74.8,61.8,30.00,SSE,158,2.0,2.0,64,0.00,,,0.00,WUHU216HW,2013-06-27 00:30:00,
2013-06-26 17:35:00,74.8,61.8,30.00,SSW,203,2.9,2.9,64,0.00,,,0.00,WUHU216HW,2013-06-27 00:35:00,
2013-06-26 17:40:00,74.8,61.8,30.00,SE,135,1.1,2.9,64,0.00,,,0.00,WUHU216HW,2013-06-27 00:40:00,
2013-06-26 17:45:00,75.0,61.9,30.00,SSE,158,0.0,2.9,64,0.00,,,0.00,WUHU216HW,2013-06-27 00:45:00,
2013-06-26 17:50:00,75.0,61.9,30.00,ESE,113,0.0,2.9,64,0.00,,,0.00,WUHU216HW,2013-06-27 00:50:00,
2013-06-26 17:55:00,75.0,61.9,29.99,SE,135,1.3,3.8,64,0.00,,,0.00,WUHU216HW,2013-06-27 00:55:00,
2013-06-26 18:01:00,75.0,61.5,29.99,SSW,203,0.0,8.2,63,0.00,,,0.00,WUHU216HW,2013-06-27 01:01:00,
2013-06-26 18:06:00,74.8,61.3,29.99,West,270,0.0,8.2,63,0.00,,,0.00,WUHU216HW,2013-06-27 01:06:00,
2013-06-26 18:11:00,74.8,61.8,29.99,South,180,0.0,1.1,64,0.00,,,0.00,WUHU216HW,2013-06-27 01:11:00,
2013-06-26 18:16:00,74.6,61.6,29.99,SE,135,0.0,1.1,64,0.00,,,0.00,WUHU216HW,2013-06-27 01:16:00,
2013-06-26 18:21:00,74.8,61.3,29.99,WNW,293,0.0,0.8,63,0.00,,,0.00,WUHU216HW,2013-06-27 01:21:00,
2013-06-26 18:26:00,74.1,60.6,29.99,SSW,203,0.0,2.4,63,0.00,,,0.00,WUHU216HW,2013-06-27 01:26:00,
2013-06-26 18:31:00,73.5,60.7,29.99,SE,135,0.0,2.4,64,0.00,,,0.00,WUHU216HW,2013-06-27 01:31:00,
2013-06-26 18:36:00,73.4,60.4,29.99,South,180,0.0,1.3,64,0.00,,,0.00,WUHU216HW,2013-06-27 01:36:00,
2013-06-26 18:41:00,73.2,60.2,29.99,SSW,203,0.0,4.2,64,0.00,,,0.00,WUHU216HW,2013-06-27 01:41:00,
2013-06-26 18:47:00,72.5,60.0,30.00,South,180,0.0,4.2,65,0.00,,,0.00,WUHU216HW,2013-06-27 01:47:00,
2013-06-26 18:52:00,72.5,60.0,29.99,SW,225,0.4,2.9,65,0.00,,,0.00,WUHU216HW,2013-06-27 01:52:00,
2013-06-26 18:57:00,72.3,60.2,29.99,SSW,203,0.0,2.9,66,0.00,,,0.00,WUHU216HW,2013-06-27 01:57:00,
2013-06-26 19:02:00,72.3,60.2,29.99,SW,225,0.0,2.0,66,0.00,,,0.00,WUHU216HW,2013-06-27 02:02:00,
2013-06-26 19:07:00,72.1,60.1,29.99,SW,225,4.0,4.0,66,0.00,,,0.00,WUHU216HW,2013-06-27 02:07:00,
2013-06-26 19:12:00,71.7,59.7,29.99,South,180,0.0,4.0,66,0.00,,,0.00,WUHU216HW,2013-06-27 02:12:00,
2013-06-26 19:17:00,71.2,59.6,29.99,SE,135,0.0,4.0,67,0.00,,,0.00,WUHU216HW,2013-06-27 02:17:00,
2013-06-26 19:22:00,70.8,59.3,29.99,SE,135,0.0,1.3,67,0.00,,,0.00,WUHU216HW,2013-06-27 02:22:00,
2013-06-26 19:27:00,70.8,59.3,29.99,SSE,158,0.0,0.0,67,0.00,,,0.00,WUHU216HW,2013-06-27 02:27:00,
2013-06-26 19:32:00,70.5,58.9,29.99,SW,225,0.0,0.0,67,0.00,,,0.00,WUHU216HW,2013-06-27 02:32:00,
2013-06-26 19:37:00,70.3,59.2,29.99,SSE,158,0.0,0.4,68,0.00,,,0.00,WUHU216HW,2013-06-27 02:37:00,
2013-06-26 19:42:00,69.9,59.2,29.99,SW,225,1.1,1.1,69,0.00,,,0.00,WUHU216HW,2013-06-27 02:42:00,
2013-06-26 19:47:00,69.9,59.2,29.99,SSE,158,0.0,1.1,69,0.00,,,0.00,WUHU216HW,2013-06-27 02:47:00,
2013-06-26 19:52:00,69.8,59.1,29.99,WSW,248,0.0,1.1,69,0.00,,,0.00,WUHU216HW,2013-06-27 02:52:00,
2013-06-26 19:57:00,69.6,59.3,29.99,SW,225,0.0,2.6,70,0.00,,,0.00,WUHU216HW,2013-06-27 02:57:00,
2013-06-26 20:02:00,69.4,59.2,29.99,ESE,113,0.0,2.6,70,0.00,,,0.00,WUHU216HW,2013-06-27 03:02:00,
2013-06-26 20:07:00,69.6,59.3,29.99,SSW,203,0.0,0.0,70,0.00,,,0.00,WUHU216HW,2013-06-27 03:07:00,
2013-06-26 20:13:00,69.4,59.2,29.99,ESE,113,0.0,2.4,70,0.00,,,0.00,WUHU216HW,2013-06-27 03:13:00,
2013-06-26 20:18:00,69.0,58.8,30.00,SSE,158,0.0,2.4,70,0.00,,,0.00,WUHU216HW,2013-06-27 03:18:00,
2013-06-26 20:23:00,68.9,58.7,30.00,SE,135,0.6,0.6,70,0.00,,,0.00,WUHU216HW,2013-06-27 03:23:00,
2013-06-26 20:28:00,68.5,58.4,30.00,SSW,203,2.9,2.9,70,0.00,,,0.00,WUHU216HW,2013-06-27 03:28:00,
2013-06-26 20:33:00,68.3,58.6,30.00,SSW,203,4.0,4.0,71,0.00,,,0.00,WUHU216HW,2013-06-27 03:33:00,
2013-06-26 20:38:00,68.5,58.7,30.00,SSE,158,3.8,4.0,71,0.00,,,0.00,WUHU216HW,2013-06-27 03:38:00,
2013-06-26 20:43:00,68.5,58.7,30.00,SSE,158,0.0,3.8,71,0.00,,,0.00,WUHU216HW,2013-06-27 03:43:00,
2013-06-26 20:48:00,68.5,58.7,30.00,SSE,158,1.1,1.1,71,0.00,,,0.00,WUHU216HW,2013-06-27 03:48:00,
2013-06-26 20:53:00,68.5,58.7,30.00,ESE,113,0.0,1.1,71,0.00,,,0.00,WUHU216HW,2013-06-27 03:53:00,
2013-06-26 20:58:00,68.9,59.1,30.00,SSE,158,0.0,1.1,71,0.00,,,0.00,WUHU216HW,2013-06-27 03:58:00,
2013-06-26 21:01:00,68.7,58.9,30.00,SSE,158,2.0,2.0,71,0.00,,,0.00,WUHU216HW,2013-06-27 04:01:00,
2013-06-26 21:02:00,68.7,58.5,30.00,South,180,0.0,2.0,70,0.00,,,0.00,WUHU216HW,2013-06-27 04:02:00,
2013-06-26 21:03:00,68.5,58.5,30.00,South,180,5.3,5.3,70,0.00,,,0.00,WUHU216HW,2013-06-27 04:03:00,
2013-06-26 21:08:00,68.0,58.2,30.00,SE,135,1.3,5.3,71,0.00,,,0.00,WUHU216HW,2013-06-27 04:08:00,
2013-06-26 21:13:00,67.8,58.4,30.00,SSE,158,2.0,5.3,72,0.00,,,0.00,WUHU216HW,2013-06-27 04:13:00,
2013-06-26 21:19:00,67.6,58.3,30.01,South,180,3.5,3.5,72,0.00,,,0.00,WUHU216HW,2013-06-27 04:19:00,
2013-06-26 21:24:00,67.2,57.9,30.01,SSE,158,2.6,3.5,72,0.00,,,0.00,WUHU216HW,2013-06-27 04:24:00,
2013-06-26 21:29:00,67.1,58.1,30.01,SE,135,0.0,3.5,73,0.00,,,0.00,WUHU216HW,2013-06-27 04:29:00,
2013-06-26 21:34:00,66.7,58.1,30.01,SSE,158,0.0,2.6,74,0.00,,,0.00,WUHU216HW,2013-06-27 04:34:00,
2013-06-26 21:39:00,66.7,58.1,30.01,SSE,158,0.8,0.8,74,0.00,,,0.00,WUHU216HW,2013-06-27 04:39:00,
2013-06-26 21:44:00,66.7,58.1,30.01,ESE,113,0.0,0.8,74,0.00,,,0.00,WUHU216HW,2013-06-27 04:44:00,
2013-06-26 21:49:00,66.7,58.1,30.02,South,180,0.0,2.9,74,0.00,,,0.00,WUHU216HW,2013-06-27 04:49:00,
2013-06-26 21:54:00,66.5,57.9,30.02,SSE,158,1.1,2.9,74,0.00,,,0.00,WUHU216HW,2013-06-27 04:54:00,
2013-06-26 21:59:00,66.3,58.1,30.02,SE,135,1.3,1.3,75,0.00,,,0.00,WUHU216HW,2013-06-27 04:59:00,
2013-06-26 22:04:00,66.0,57.4,30.02,SSE,158,0.0,1.3,74,0.00,,,0.00,WUHU216HW,2013-06-27 05:04:00,
2013-06-26 22:10:00,65.8,57.6,30.02,South,180,0.0,1.3,75,0.00,,,0.00,WUHU216HW,2013-06-27 05:10:00,
2013-06-26 22:15:00,65.4,57.6,30.02,SE,135,0.0,0.0,76,0.00,,,0.00,WUHU216HW,2013-06-27 05:15:00,
2013-06-26 22:20:00,65.1,57.3,30.02,South,180,0.0,0.0,76,0.00,,,0.00,WUHU216HW,2013-06-27 05:20:00,
2013-06-26 22:25:00,65.1,57.7,30.03,South,180,0.0,0.0,77,0.00,,,0.00,WUHU216HW,2013-06-27 05:25:00,
2013-06-26 22:30:00,64.9,57.5,30.03,South,180,0.0,0.0,77,0.00,,,0.00,WUHU216HW,2013-06-27 05:30:00,
2013-06-26 22:35:00,64.7,57.3,30.03,SSE,158,0.0,0.0,77,0.00,,,0.00,WUHU216HW,2013-06-27 05:35:00,
2013-06-26 22:40:00,64.7,57.3,30.03,South,180,0.0,0.0,77,0.00,,,0.00,WUHU216HW,2013-06-27 05:40:00,
2013-06-26 22:45:00,64.7,57.3,30.03,SSE,158,0.0,0.0,77,0.00,,,0.00,WUHU216HW,2013-06-27 05:45:00,
2013-06-26 22:50:00,64.5,57.5,30.03,ESE,113,0.0,0.0,78,0.00,,,0.00,WUHU216HW,2013-06-27 05:50:00,
2013-06-26 22:55:00,64.5,57.5,30.03,SSE,158,0.0,0.0,78,0.00,,,0.00,WUHU216HW,2013-06-27 05:55:00,
2013-06-26 23:00:00,64.5,57.5,30.03,SSW,203,0.0,0.0,78,0.00,,,0.00,WUHU216HW,2013-06-27 06:00:00,
2013-06-26 23:05:00,64.4,57.5,30.03,SE,135,0.0,1.3,79,0.00,,,0.00,WUHU216HW,2013-06-27 06:05:00,
2013-06-26 23:11:00,64.2,57.5,30.03,SSE,158,0.0,1.3,79,0.00,,,0.00,WUHU216HW,2013-06-27 06:11:00,
2013-06-26 23:16:00,64.2,57.2,30.03,SSE,158,0.0,0.0,78,0.00,,,0.00,WUHU216HW,2013-06-27 06:16:00,
2013-06-26 23:21:00,64.2,57.2,30.03,SW,225,1.3,1.3,79,0.00,,,0.00,WUHU216HW,2013-06-27 06:21:00,
2013-06-26 23:26:00,64.2,57.5,30.03,South,180,0.0,1.3,79,0.00,,,0.00,WUHU216HW,2013-06-27 06:26:00,
2013-06-26 23:31:00,64.0,57.3,30.03,SW,225,0.0,1.3,79,0.00,,,0.00,WUHU216HW,2013-06-27 06:31:00,
2013-06-26 23:36:00,64.0,57.3,30.03,SSE,158,0.0,0.0,79,0.00,,,0.00,WUHU216HW,2013-06-27 06:36:00,
2013-06-26 23:41:00,63.8,57.2,30.03,South,180,0.0,0.0,79,0.00,,,0.00,WUHU216HW,2013-06-27 06:41:00,
2013-06-26 23:46:00,63.6,57.3,30.04,SSE,158,0.0,0.0,80,0.00,,,0.00,WUHU216HW,2013-06-27 06:46:00,
2013-06-26 23:51:00,63.5,57.2,30.03,SSE,158,0.0,0.0,80,0.00,,,0.00,WUHU216HW,2013-06-27 06:51:00,
2013-06-26 23:56:00,63.3,57.0,30.03,SSE,158,0.0,1.3,80,0.00,,,0.00,WUHU216HW,2013-06-27 06:56:00,